Regional Weather Roundup
Issued by NWS

Home | Current Version | Previous Version | Text Only | Print | Product List | Glossary Off
Versions: 1 2 3 4 5 6 7 8 9 10 11 12 13 14 15 16 17 18 19 20 21 22 23 24 25 26 27 28 29 30 31 32 33 34 35 36 37 38 39 40 41 42 43 44 45 46 47 48 49 50

000
ASUS43 KTOP 270508
RWRKS

WEATHER ROUNDUP FOR KANSAS
NATIONAL WEATHER SERVICE GOODLAND KS
1200 AM CDT THU JUL 27 2017

NOTE:  "FAIR" INDICATES FEW OR NO CLOUDS BELOW 12,000 FEET WITH NO
SIGNIFICANT WEATHER AND/OR OBSTRUCTIONS TO VISIBILITY.

KSZ001>006-013>018-027>032-041>047-270600-
NORTHWEST KANSAS

CITY           SKY/WX    TMP DP  RH WIND       PRES   REMARKS
GOODLAND       CLOUDY    72  67  84 NE5       30.17R
HAYS           CLOUDY    76  71  85 NE10      30.03R
HILL CITY      PTCLDY    74  69  85 NE9       30.08R
RUSSELL        CLOUDY    77  73  87 NE12      30.00
$$

KSZ061>065-074>080-084>089-270600-
SOUTHWEST KANSAS

CITY           SKY/WX    TMP DP  RH WIND       PRES   REMARKS
DODGE CITY     CLOUDY    78  71  79 N12       30.02S
ELKHART          N/A     75  58  55 NE6         N/A
GARDEN CITY    PTCLDY    77  70  79 N13       30.06S
GREAT BEND     CLOUDY    77  74  90 NE16      30.00R
LIBERAL        MOCLDY    80  68  66 N12       30.06S
PRATT          CLOUDY    78  69  71 N6        29.97R
$$

KSZ066>073-081>083-090>101-270600-
SOUTHEAST KANSAS

CITY           SKY/WX    TMP DP  RH WIND       PRES   REMARKS
CHANUTE        CLOUDY    86  73  65 S16       29.95S
COFFEYVILLE    MOCLDY    85  74  69 S10       29.96R
HUTCHINSON     CLOUDY    80  71  74 N8        29.94R
MEDICINE LODGE   N/A     87  65  47 S6        29.93R
NEWTON         LGT RAIN  77  74  90 CALM      29.96R
PARSONS        CLOUDY    83  74  74 S8        29.97R
WICHITA INTL   MOCLDY    85  70  60 S13       29.92R
WICHITA JABRA  PTCLDY    84  70  62 S13       29.92S
WICHITA MCCONL PTCLDY    84  69  60 SW15      29.93S
WINFIELD       CLOUDY    87  72  60 S14       29.94S
$$

KSZ007>012-019>026-033>040-048>060-102>105-270600-
NORTHEAST KANSAS

CITY           SKY/WX    TMP DP  RH WIND       PRES   REMARKS
CONCORDIA      CLOUDY    74  74 100 N9        30.00R
EMPORIA        LGT RAIN  77  76  96 NE10      29.95S
LAWRENCE       RAIN      75  75 100 E5        29.96F FOG
MANHATTAN      CLOUDY    76  75  97 NE5       29.96R
MARYSVILLE     CLOUDY    73  73 100 NE8       30.00R
OLATHE IND     TSTM      76  76 100 CALM      30.00R FOG
OLATHE EXE     TSTM      75  75 100 S3        29.98R FOG
SALINA         CLOUDY    78  74  87 NE8       29.97R
TOPEKA BILLARD CLOUDY    76  76 100 N9        29.96F
TOPEKA FORBES  LGT RAIN  77  76  96 E8        29.95F FOG
$$



USA.gov is the U.S. government's official web portal to all federal, state and local government web resources and services.